STARLINK-36559, 67555

Orbit data source: Space-Track

STARLINK-36559, 67555 is a payload satellite owned by SpaceX/Seattle (US) in SSO that was launched on Thu, 22 Jan 2026 UTC via an FALCON 9 launch vehicle from the Air Force Western Test Range (AFWTR). Payload-class satellites include a variety of spacecraft equipped with specific instruments for various scientific and technological missions. These include communications satellites like Starlink; space stations such as the ISS; scientific satellites like the Hubble; Earth observation satellites from companies like Planet Labs, Umbra, and HawkEye 360; GPS; miniature CubeSats for education and research; and military/defense satellites.

Loading next visibility...
Identifier
67555, 2026-014Z
Orbit
SSO
Country
Flag of USUS
Related business
Manufacturer
SpaceX/Seattle
Mission
Operational Commercial Communications
Bus & Motor
STARLINK V2MO, Unknown motor
Mass
575 kg wet, ~530 kg dry
Launch date (UTC)
2026-01-22 (5 months ago)
Launch vehicle
FALCON 9
Launch site
Air Force Western Test Range (AFWTR)
Object type
Payload
Rocket body
Debris
Shape & HBR
Box + 2 Pan, 17.7 m
Radar Cross Section
36.964 m², Large (>1 m²)

Expand to show TLE details & history
Last TLE update: 16 hours ago

TLE from 16 hours ago
0 STARLINK-36559
1 67555U 26014Z   26171.25966142  .00015788  00000-0  49026-3 0  9996
2 67555  97.2859  57.9491 0001178  88.8777 271.2601 15.33451131 24492
Epoch: 2026-06-20T06:13Z
TLE epoch observation values (Epoch: 2026-06-20T06:13:54.746Z)
Latitude
-0.00001°
Longitude
55.99415°
Altitude
468.619 km
Speed
7.632 km/s
True Right ascension
03h 51m 47s
True Declination
0° 00' 00"
Sunlit
Object was in daylight at epoch
Visualization orbit readout
Latitude
Unknown
Longitude
Unknown
Altitude
Unknown
Speed
Unknown
Apparent Right ascension
Unknown
Apparent Declination
Unknown
Sunlit
N/A
Visualization observer readout
Local Sidereal Time
08:43:11
Azimuth
Unknown
Elevation
Unknown
Doppler factor
Unknown
Orbital elements
Apogee altitude
463.274 km
Perigee altitude
461.662 km
Semi-major axis
6,840.605 km
Eccentricity
0.00012
Inclination
97.2859°
RAAN
57.9491°
Arg. of periapsis
88.8777°
True anomaly
271.2466°
Mean anomaly
271.2601°
Eccentric anomaly
271.25335°
Mean motion
3.8362 °/min
Orbital period
93.84 mins
BSTAR
0.00049026
Loading maneuver chart data...
Computing Atmospheric mass density...
Loading historical data...
Loading historical data...
Loading historical data...
Loading historical data...
Loading historical data...
Loading historical data...
Loading historical data...

Documentation

Showing up to 5 results
|